ZBAA

Beijing Capital International Airport

Airport
ICAO code
ZBAA
IATA Code
PEK
Summary
ICAO Region
APAC
ICAO Territory
Location

Chaoyang District, Beijing

Serving
Beijing
Elevation
116 ft
Coordinates
40° 4' 31" N , 116° 35' 32" E
KCC
Metar
Observation
ZBAA 052300Z VRB01MPS CAVOK M07/M10 Q1024 NOSIG
Station
Beijing
Date/Time
2023-02-05 23:00:00
Lowest cloud amount
clouds and visibility OK
Temperature
-7°C
Dew point
-10°C
Humidity
79%
QNH
1024 hPa
Weather condition
n/a

Description

International airport serving the city of Beijing.

Climatology

Within the Köppen Climate Classification System, ((Koppen climate classification Cwa)) this climate type generally has warm and humid summers with mild winters. Its extent is from 30 to 50° of latitude mainly on the eastern and western borders of most continents. During the winter, the main weather feature is the mid-latitude cyclone. Convective thunderstorms provide precipitation in the summer months.

Airport map

Aerial View

SKYbrary Partners:

Safety knowledge contributed by: